TimeEDT,TemperatureF,Dew PointF,Humidity,Sea Level PressureIn,VisibilityMPH,Wind Direction,Wind SpeedMPH,Gust SpeedMPH,PrecipitationIn,Events,Conditions,WindDirDegrees,DateUTC
12:17 AM,41.0,37.4,87,29.69,10.0,WSW,6.9,-,N/A,,Overcast,250,2012-11-01 04:17:00
12:50 AM,41.0,37.4,87,29.69,10.0,WSW,5.8,-,N/A,,Overcast,250,2012-11-01 04:50:00
12:53 AM,39.9,37.9,93,29.70,10.0,West,4.6,-,N/A,,Overcast,260,2012-11-01 04:53:00
1:53 AM,39.9,37.0,89,29.70,10.0,West,5.8,-,0.00,Rain,Light Rain,260,2012-11-01 05:53:00
2:41 AM,39.2,37.4,93,29.69,10.0,West,8.1,-,0.00,Rain,Light Rain,260,2012-11-01 06:41:00
2:53 AM,39.9,37.0,89,29.71,10.0,West,6.9,-,0.00,Rain,Light Rain,270,2012-11-01 06:53:00
3:10 AM,39.2,37.4,93,29.69,10.0,West,6.9,-,0.00,,Overcast,260,2012-11-01 07:10:00
3:37 AM,39.2,37.4,93,29.69,10.0,West,8.1,-,0.00,Rain,Light Rain,270,2012-11-01 07:37:00
3:53 AM,39.9,37.0,89,29.70,10.0,West,6.9,-,0.00,Rain,Light Rain,260,2012-11-01 07:53:00
4:53 AM,39.9,37.0,89,29.71,10.0,West,5.8,-,0.00,Rain,Light Rain,260,2012-11-01 08:53:00
5:53 AM,39.0,37.0,93,29.71,10.0,West,4.6,-,0.01,Rain,Light Rain,260,2012-11-01 09:53:00
6:45 AM,39.2,37.4,93,29.70,10.0,West,8.1,-,N/A,,Overcast,270,2012-11-01 10:45:00
6:53 AM,39.9,37.0,89,29.72,10.0,West,6.9,-,N/A,,Overcast,270,2012-11-01 10:53:00
7:00 AM,39.2,37.4,93,29.70,10.0,West,6.9,-,N/A,,Overcast,270,2012-11-01 11:00:00
7:20 AM,39.2,37.4,93,29.70,7.0,West,6.9,-,N/A,,Overcast,260,2012-11-01 11:20:00
7:53 AM,39.9,37.0,89,29.73,10.0,West,5.8,-,N/A,,Overcast,260,2012-11-01 11:53:00
8:53 AM,39.9,37.0,89,29.75,10.0,West,5.8,-,N/A,,Overcast,260,2012-11-01 12:53:00
9:06 AM,39.2,37.4,93,29.73,10.0,West,4.6,-,N/A,,Overcast,260,2012-11-01 13:06:00
9:41 AM,39.2,37.4,93,29.74,9.0,WSW,5.8,-,N/A,,Overcast,240,2012-11-01 13:41:00
9:53 AM,41.0,37.9,89,29.76,7.0,WSW,9.2,-,0.00,Rain,Light Rain,250,2012-11-01 13:53:00
10:03 AM,41.0,37.4,87,29.74,8.0,WSW,6.9,-,0.00,Rain,Light Rain,250,2012-11-01 14:03:00
10:35 AM,41.0,39.2,93,29.75,3.0,West,6.9,-,0.00,Rain,Light Rain,260,2012-11-01 14:35:00
10:45 AM,39.2,37.4,93,29.75,5.0,West,5.8,-,0.00,Rain,Light Rain,260,2012-11-01 14:45:00
10:53 AM,41.0,37.9,89,29.77,4.0,West,5.8,-,0.00,Rain,Light Rain,270,2012-11-01 14:53:00
11:34 AM,41.0,37.4,87,29.75,10.0,West,6.9,-,0.00,Rain,Light Rain,260,2012-11-01 15:34:00
11:53 AM,41.0,37.0,86,29.77,10.0,Variable,5.8,-,0.00,,Overcast,0,2012-11-01 15:53:00
12:53 PM,42.1,36.0,79,29.76,10.0,Variable,5.8,-,N/A,,Overcast,0,2012-11-01 16:53:00
1:53 PM,41.0,36.0,82,29.77,10.0,WSW,10.4,17.3,0.00,,Overcast,250,2012-11-01 17:53:00
2:53 PM,41.0,34.0,76,29.76,10.0,West,9.2,-,N/A,,Overcast,280,2012-11-01 18:53:00
3:53 PM,39.9,33.1,77,29.77,10.0,West,10.4,17.3,N/A,,Overcast,270,2012-11-01 19:53:00
4:53 PM,39.0,33.1,79,29.78,10.0,Variable,6.9,-,N/A,,Overcast,0,2012-11-01 20:53:00
5:53 PM,39.9,33.1,77,29.79,10.0,West,3.5,-,N/A,,Mostly Cloudy,280,2012-11-01 21:53:00
6:03 PM,39.2,32.0,75,29.77,10.0,WNW,5.8,-,N/A,,Mostly Cloudy,290,2012-11-01 22:03:00
6:53 PM,37.0,33.1,86,29.80,10.0,Calm,Calm,-,N/A,,Mostly Cloudy,0,2012-11-01 22:53:00
7:53 PM,37.9,34.0,86,29.81,10.0,Calm,Calm,-,N/A,,Overcast,0,2012-11-01 23:53:00
8:53 PM,37.9,33.1,83,29.81,10.0,Calm,Calm,-,N/A,,Overcast,0,2012-11-02 00:53:00
9:53 PM,37.9,33.1,83,29.80,10.0,ESE,3.5,-,N/A,,Overcast,110,2012-11-02 01:53:00
10:53 PM,39.9,34.0,79,29.80,10.0,Calm,Calm,-,N/A,,Overcast,0,2012-11-02 02:53:00
11:53 PM,39.9,33.1,77,29.80,10.0,Calm,Calm,-,N/A,,Overcast,0,2012-11-02 03:53:00